Voltar ao catálogo

CZ-6A DEB

AtivoPO
NORAD 60760·DEBRIS·🇨🇳 China

Lançado Aug 6, 2024 de Taiyuan Satellite Launch Center

Loading…

Próximas Passagens (próximas 24 horas)

TLE

AtualizadoSource: Space-Track

Época: Sep 14, 2026, 11:06 UTC

1 60760U 24140EK  26257.46253512  .00001071  00000-0  15026-3 0  9996
2 60760  89.0811 266.2318 0165010 269.2217  89.0091 14.67749030110334

Acompanhe CZ-6A DEB em tempo real com AllMySat

Download on the App Store